Location: Auttagershofen
(48.1940°N, 10.0237°E)
Time: 18:20:23
(UTC+00:00)

Cosmos 2228 Rocket - Pass Details

Date: 18 January 2026
Orbit: 612 x 647 km, 82.5° (Epoch: 17 February)

Event Time Altitude Azimuth Distance (km) Brightness Sun altitude
Exits shadow 05:05:48 - 354° (N) 2,954 6.4 -19.1°
Rises 05:05:56 0° 354° (N) 2,899 6.3 -19.1°
Reaches altitude 10° 05:08:14 10° 359° (N) 1,986 5.5 -18.7°
Maximum altitude 05:12:32 53° 77° (ENE) 755 3.8 -18.0°
Drops below altitude 10° 05:16:47 10° 155° (SSE) 1,965 6.1 -17.3°
Sets 05:19:02 0° 160° (SSE) 2,865 6.9 -17.0°
